Date String (YYYY-MM-DD hh:mm:ss) UTC,Instrument flags,Ambient pressure (hPa),Sample flow (lpm),Bypass flow (lpm),Sample temperature (°C),Ambient temperature (°C),ASC tube jacket temperature (°C),LED temperature (°C),Box temperature (°C),Sample RH (%),Span deviation,Mass concentration (μg/m³),Mass concentration (μg/m³),Mass concentration (μg/m³)
DateTimeUTC,F1_M11,P_M11,Q1_M11,Q2_M11,T1_M11,T2_M11,T3_M11,T4_M11,T5_M11,U1_M11,ZSPAN_M11,X0_M11,X2_M11,X1_M11
2021-10-09 06:00:00,,0822.7,4.99,0.00,29.8,28.1,00.0,39.1,31.5,20.6,0000.0,0008.70,0003.16,0002.26
2021-10-09 06:01:00,,0822.7,5.00,0.00,29.9,28.3,00.0,39.1,31.5,20.6,0000.0,0008.62,0003.12,0002.23
2021-10-09 06:02:00,,0822.7,5.00,0.00,29.9,28.4,00.0,39.1,31.5,20.5,0000.0,0008.71,0003.11,0002.21
2021-10-09 06:03:00,,0822.7,5.02,0.00,29.9,28.6,00.0,39.1,31.5,20.6,0000.0,0008.96,0003.18,0002.21
2021-10-09 06:04:00,,0822.6,4.99,0.00,29.9,28.7,00.0,39.1,31.6,20.5,0000.0,0009.32,0003.17,0002.19
2021-10-09 06:05:00,,0822.6,4.99,0.00,29.9,28.7,00.0,39.1,31.7,20.4,0000.0,0009.54,0003.19,0002.19
2021-10-09 06:06:00,,0822.6,5.00,0.00,29.9,28.8,00.0,39.1,31.7,20.3,0000.0,0009.97,0003.21,0002.20
2021-10-09 06:07:00,,0822.6,5.01,0.00,29.9,28.9,00.0,39.1,31.7,20.3,0000.0,0009.78,0003.22,0002.20
2021-10-09 06:08:00,,0822.6,5.01,0.00,29.9,28.9,00.0,39.1,31.7,20.3,0000.0,0008.47,0003.21,0002.19
2021-10-09 06:09:00,,0822.6,4.98,0.00,30.0,29.0,00.0,39.1,31.7,20.4,0000.0,0008.45,0003.22,0002.21
2021-10-09 06:10:00,,0822.5,4.99,0.00,30.0,29.0,00.0,39.1,31.8,20.2,0000.0,0009.07,0003.23,0002.23
2021-10-09 06:11:00,,0822.4,5.00,0.00,30.0,29.0,00.0,39.1,31.7,19.5,0000.0,0009.30,0003.29,0002.25
2021-10-09 06:12:00,,0822.4,5.00,0.00,30.0,29.0,00.0,39.1,31.7,19.7,0000.0,0009.36,0003.33,0002.28
2021-10-09 06:13:00,,0822.4,5.00,0.00,30.0,29.0,00.0,39.1,31.8,19.6,0000.0,0009.33,0003.29,0002.29
2021-10-09 06:14:00,,0822.4,5.00,0.00,30.0,29.0,00.0,39.1,31.8,19.1,0000.0,0009.27,0003.26,0002.30
2021-10-09 06:15:00,,0822.3,5.00,0.00,30.1,29.0,00.0,39.1,31.8,19.0,0000.0,0008.98,0003.27,0002.34
2021-10-09 06:16:00,,0822.3,5.00,0.00,30.1,29.1,00.0,39.1,31.8,18.6,0000.0,0008.83,0003.28,0002.35
2021-10-09 06:17:00,,0822.3,4.99,0.00,30.1,29.1,00.0,39.1,31.8,18.4,0000.0,0009.11,0003.29,0002.36
2021-10-09 06:18:00,,0822.3,5.01,0.00,30.1,29.1,00.0,39.2,31.8,18.0,0000.0,0009.30,0003.28,0002.40
2021-10-09 06:19:00,,0822.3,5.01,0.00,30.1,29.1,00.0,39.2,31.8,17.9,0000.0,0009.38,0003.31,0002.41
2021-10-09 06:20:00,,0822.2,4.99,0.00,30.1,29.1,00.0,39.2,31.8,17.8,0000.0,0009.39,0003.32,0002.42
2021-10-09 06:21:00,,0822.2,5.00,0.00,30.1,29.2,00.0,39.2,31.9,17.8,0000.0,0008.80,0003.35,0002.45
2021-10-09 06:22:00,,0822.1,5.01,0.00,30.1,29.2,00.0,39.2,31.9,17.8,0000.0,0008.61,0003.38,0002.47
2021-10-09 06:23:00,,0822.1,5.00,0.00,30.1,29.2,00.0,39.2,31.9,17.8,0000.0,0008.57,0003.38,0002.49
2021-10-09 06:24:00,,0822.1,4.99,0.00,30.1,29.2,00.0,39.2,31.9,17.8,0000.0,0008.47,0003.40,0002.50
2021-10-09 06:25:00,,0821.9,4.99,0.00,30.2,29.3,00.0,39.2,31.9,17.8,0000.0,0008.40,0003.39,0002.50
2021-10-09 06:26:00,,0822.0,5.01,0.00,30.2,29.3,00.0,39.2,31.9,17.9,0000.0,0008.32,0003.37,0002.49
2021-10-09 06:27:00,,0821.8,4.99,0.00,30.2,29.3,00.0,39.2,32.0,18.3,0000.0,0008.85,0003.36,0002.50
2021-10-09 06:28:00,,0821.8,5.00,0.00,30.2,29.3,00.0,39.3,32.0,18.8,0000.0,0008.83,0003.35,0002.48
2021-10-09 06:29:00,,0821.8,4.99,0.00,30.2,29.3,00.0,39.3,32.0,18.8,0000.0,0008.55,0003.36,0002.47
2021-10-09 06:30:00,,0822.0,5.02,0.00,30.2,29.4,00.0,39.3,32.0,18.9,0000.0,0009.24,0003.34,0002.47
2021-10-09 06:31:00,,0822.1,4.99,0.00,30.2,29.4,00.0,39.3,32.0,19.2,0000.0,0009.33,0003.34,0002.46
2021-10-09 06:32:00,,0821.9,5.00,0.00,30.3,29.4,00.0,39.3,32.0,19.5,0000.0,0009.26,0003.31,0002.43
2021-10-09 06:33:00,,0822.1,5.02,0.00,30.3,29.4,00.0,39.3,32.0,19.6,0000.0,0009.26,0003.26,0002.39
2021-10-09 06:34:00,,0822.1,5.00,0.00,30.3,29.4,00.0,39.3,32.1,19.7,0000.0,0009.51,0003.27,0002.37
2021-10-09 06:35:00,,0822.2,5.00,0.00,30.3,29.4,00.0,39.4,32.0,19.8,0000.0,0009.79,0003.26,0002.35
2021-10-09 06:36:00,,0822.2,5.02,0.00,30.3,29.5,00.0,39.4,32.0,19.8,0000.0,0009.61,0003.23,0002.34
2021-10-09 06:37:00,,0822.2,4.98,0.00,30.3,29.5,00.0,39.4,32.1,19.8,0000.0,0009.63,0003.23,0002.33
2021-10-09 06:38:00,,0822.3,5.02,0.00,30.3,29.5,00.0,39.4,32.1,19.8,0000.0,0009.31,0003.22,0002.31
2021-10-09 06:39:00,,0822.3,4.98,0.00,30.3,29.5,00.0,39.4,32.1,19.8,0000.0,0008.56,0003.20,0002.30
2021-10-09 06:40:00,,0822.4,5.01,0.00,30.3,29.5,00.0,39.4,32.1,19.8,0000.0,0008.24,0003.18,0002.29
2021-10-09 06:41:00,,0822.4,5.00,0.00,30.3,29.5,00.0,39.4,32.1,19.7,0000.0,0007.71,0003.15,0002.28
2021-10-09 06:42:00,,0822.4,4.99,0.00,30.3,29.5,00.0,39.4,32.1,19.7,0000.0,0007.67,0003.14,0002.29
2021-10-09 06:43:00,,0822.4,4.99,0.00,30.3,29.5,00.0,39.4,32.1,19.7,0000.0,0008.78,0003.11,0002.29
2021-10-09 06:44:00,,0822.4,5.01,0.00,30.3,29.5,00.0,39.4,32.1,19.7,0000.0,0008.67,0003.06,0002.28
2021-10-09 06:45:00,,0822.4,5.00,0.00,30.3,29.5,00.0,39.5,32.1,19.7,0000.0,0008.27,0002.95,0002.29
2021-10-09 06:46:00,,0822.4,4.99,0.00,30.4,29.5,00.0,39.5,32.1,19.7,0000.0,0007.93,0002.93,0002.29
2021-10-09 06:47:00,,0822.4,5.00,0.00,30.4,29.5,00.0,39.5,32.1,19.6,0000.0,0008.08,0002.98,0002.29
2021-10-09 06:48:00,,0822.4,5.00,0.00,30.4,29.6,00.0,39.5,32.1,19.6,0000.0,0008.07,0002.96,0002.28
2021-10-09 06:49:00,,0822.4,5.01,0.00,30.4,29.6,00.0,39.5,32.1,19.6,0000.0,0007.95,0002.90,0002.29
2021-10-09 06:50:00,,0822.3,4.99,0.00,30.4,29.6,00.0,39.5,32.1,19.6,0000.0,0007.94,0002.91,0002.28
2021-10-09 06:51:00,,0822.3,4.99,0.00,30.4,29.6,00.0,39.5,32.1,19.6,0000.0,0007.95,0002.97,0002.28
2021-10-09 06:52:00,,0822.4,5.00,0.00,30.4,29.6,00.0,39.5,32.2,19.6,0000.0,0007.70,0002.98,0002.29
2021-10-09 06:53:00,,0822.4,5.00,0.00,30.4,29.6,00.0,39.5,32.2,19.6,0000.0,0007.95,0003.02,0002.29
2021-10-09 06:54:00,,0822.4,5.00,0.00,30.4,29.6,00.0,39.5,32.2,19.6,0000.0,0006.89,0003.11,0002.32
2021-10-09 06:55:00,,0822.3,5.01,0.00,30.4,29.6,00.0,39.5,32.2,19.6,0000.0,0006.82,0003.09,0002.32
2021-10-09 06:56:00,,0822.4,5.00,0.00,30.4,29.6,00.0,39.5,32.2,19.6,0000.0,0007.29,0003.13,0002.30
2021-10-09 06:57:00,,0822.2,4.99,0.00,30.4,29.6,00.0,39.6,32.2,19.5,0000.0,0007.73,0003.17,0002.33
2021-10-09 06:58:00,,0822.1,5.01,0.00,30.4,29.6,00.0,39.6,32.2,19.5,0000.0,0007.71,0003.17,0002.37
2021-10-09 06:59:00,,0822.1,5.01,0.00,30.5,29.6,00.0,39.6,32.2,19.6,0000.0,0007.92,0003.17,0002.39
